TIANMU-1 03

Last updated on Fri Jul 11 2025 00:02:20 GMT+0000 (Coordinated Universal Time)

1 55973U 23039A 25191.58466964 .00006121 00000+0 17821-3 0 9993 2 55973 97.5022 350.6836 0002629 230.9530 129.1479 15.35791330128212
UTC large
Height (km)
Speed (km/s)
/
Latitude / Longitude
Inclination (degrees)
Orbital Period (minutes)
Azimuth
Elevation
Range (km)
Doppler Factor

Next 0 passes for location: London (51.5072 / 0.1276)

Sorry there are no passes over London.